Regional Weather Roundup
Issued by NWS

Home | Current Version | Previous Version | Text Only | Print | Product List | Glossary Off
Versions: 1 2 3 4 5 6 7 8 9 10 11 12 13 14 15 16 17 18 19 20 21 22 23 24 25 26 27 28 29 30 31 32 33 34 35 36 37 38 39 40 41 42 43 44 45 46 47 48 49 50

000
ASUS43 KLSX 231757
RWRMO

WEATHER SUMMARY FOR MISSOURI
NATIONAL WEATHER SERVICE SPRINGFIELD MO
100 PM CDT WED AUG 23 2017

NOTE: "FAIR" INDICATES FEW OR NO CLOUDS BELOW 12,000 FEET WITH NO
       SIGNIFICANT WEATHER AND/OR OBSTRUCTIONS TO VISIBILITY.
       CURRENT SKY AND/OR WEATHER CONDITIONS ARE NOT AVAILABLE FOR
       CHILLICOTHE AND FARMINGTON.

MOZ001>031-035>038-043-044-053-054-231900-
...NORTHERN AND WESTERN MISSOURI...

CITY           SKY/WX    TMP DP  RH WIND       PRES   REMARKS
KANSAS CTY INT SUNNY     75  55  49 N5        30.15
6HR MIN TEMP:  56; 6HR MAX TEMP:  76;

LEE`S SUMMIT   SUNNY     75  55  49 E7        30.15F
6HR MIN TEMP:  55; 6HR MAX TEMP:  75;

ST JOSEPH      SUNNY     78  58  49 CALM      30.15F
6HR MIN TEMP:  51; 6HR MAX TEMP:  78;

CHILLICOTHE      N/A     78  54  43 CALM      30.15F
6HR MIN TEMP:  52; 6HR MAX TEMP:  78;


$$
MOZ066>068-077>081-088>096-101>105-231900-
...SOUTHWEST MISSOURI...

CITY           SKY/WX    TMP DP  RH WIND       PRES   REMARKS
SPRINGFIELD    SUNNY     76  56  49 NE6       30.12F
6HR MIN TEMP:  61; 6HR MAX TEMP:  77;

JOPLIN         SUNNY     79  58  48 VRB6      30.12F
6HR MIN TEMP:  61; 6HR MAX TEMP:  79;


$$
MOZ032>034-039>042-045>050-055>058-069>072-231900-
...CENTRAL MISSOURI...

CITY           SKY/WX    TMP DP  RH WIND       PRES   REMARKS
COLUMBIA       NOT AVBL
JEFFERSON CITY SUNNY     76  54  46 N8        30.12F
6HR MIN TEMP:  57; 6HR MAX TEMP:  76;

ROLLA          SUNNY     75  54  47 N6        30.14F
6HR MIN TEMP:  57; 6HR MAX TEMP:  75;

SEDALIA        SUNNY     78  56  46 CALM      30.15F
6HR MIN TEMP:  56; 6HR MAX TEMP:  79;


$$
MOZ051-052-059>065-231900-
...EAST CENTRAL MISSOURI...

CITY           SKY/WX    TMP DP  RH WIND       PRES   REMARKS
ST LOUIS INTL  MOSUNNY   78  53  41 N13       30.11F
6HR MIN TEMP:  61; 6HR MAX TEMP:  78;


$$
MOZ072>076-082>087-097>100-106>115-231900-
...SOUTH CENTRAL AND SOUTHEAST MISSOURI...

CITY           SKY/WX    TMP DP  RH WIND       PRES   REMARKS
CAPE GIRARDEAU MOSUNNY   79  54  41 CALM      30.07F
6HR MIN TEMP:  60; 6HR MAX TEMP:  79;

POPLAR BLUFF   MOSUNNY   79  56  45 N12       30.06F
6HR MIN TEMP:  64; 6HR MAX TEMP:  80;

WEST PLAINS    SUNNY     76  56  49 VRB3      30.12F
6HR MIN TEMP:  63; 6HR MAX TEMP:  77;


$$


USA.gov is the U.S. government's official web portal to all federal, state and local government web resources and services.